Weather in Kamennoye

Russia / Kurgan Oblast     55°15′29″N   63°12′28″E
temp.,
°C
wind,
m/s
gust,
m/s
humid.,
%
clouds,
%
prec.,
mm/h
press.,
hPa
HPBL,
m
1 march, mon
mon123:00−17nne369799 0.3 1010125
02:00−19nne469996 0.0 1012109
05:00−19n359997 0.1 1013109
08:00−21n359987 0.0 101598
11:00−18n349689 0.1 1016249
14:00−15n349099 0.0 1017386
17:00−15n229299 0.1 1017285
20:00−19nw009991 0.0 101820
2 march, tue
tue223:00−17sw129789 0.1 101820
02:00−20sw239938 0.0 101620
05:00−20sw339841 0.0 101626
08:00−20ssw349929 0.0 101441
11:00−15ssw359454 0.0 1013253
14:00−12ssw479396 0.0 1010350
17:00−13s5109397 0.0 1009350
20:00−15s61195100 0.0 1006262
3 march, wed
wed323:00−14ssw61193100 0.0 1005300
02:00−10ssw61293100 0.1 1004422
05:00−12ssw61289100 0.1 1003346
08:00−9ssw61292100 0.0 1002494
11:00−5sw71192100 0.1 1001736
14:00−2sw71086100 0.1 999751
17:00−2sw6118899 0.1 999606
20:00−6ssw5129025 0.0 999209
4 march, thu
thu423:00−7sw479326 0.0 1000100
02:00−9wsw338953 0.0 99923
05:00−10wsw338875 0.0 100025
08:00−11wsw3490100 0.0 99944
11:00−7w4889100 0.0 999288
14:00−4w589294 0.1 1000662
17:00−4wnw6108397 0.2 1001699
20:00−10w5108410 0.0 1003171
5 march, fri
fri523:00−12wsw510865 0.0 1005151
02:00−13ssw510850 0.0 1004180
05:00−10ssw8169137 0.1 1002592
08:00−7sw91791100 0.8 1000787
11:00−2sw121981100 1.0 9971019
14:00+1sw111875100 0.0 9961442
17:000wsw8177287 1.1 10001416
20:00−5wsw616800 0.0 1004506